CPA170 YPPH-VHHH

Flight info

Callsign CPA170
Flight time N/A
Altitude 39000
Route AVNEX Y15 ESDEG/N0492F400 Q587 METUM R592 BLI M522 ELANG/N0486F410 M522 VINIK M754 AKOTA/N0483F430 A583 SABNO V542 BETTY
Aircraft A359/H-SDE2E3GHIJ3J4J5LM1ORWXY/LB1D1

Departure

Time 2026-04-28 01:44
Airport Perth International Airport (YPPH)

Arrival

Time N/A
Airport Hong Kong International Airport (VHHH)
Time Latitude Longitude Altitude Speed Heading
2026-04-28 01:35 -31.92551 115.96537 57 ft 0 kts 103°
2026-04-28 01:36 -31.92549 115.96528 54 ft 2 kts 111°
2026-04-28 01:36 -31.92544 115.96514 55 ft 2 kts 123°
2026-04-28 01:36 -31.92535 115.96503 54 ft 2 kts 153°
2026-04-28 01:37 -31.92523 115.96499 55 ft 2 kts 185°
2026-04-28 01:37 -31.92515 115.96500 56 ft 0 kts 194°
2026-04-28 01:37 -31.92514 115.96500 56 ft 0 kts 198°
2026-04-28 01:39 -31.92585 115.96480 55 ft 38 kts 193°
2026-04-28 01:39 -31.92751 115.96434 57 ft 9 kts 193°
2026-04-28 01:40 -31.92782 115.96444 56 ft 3 kts 131°
2026-04-28 01:40 -31.92808 115.96509 56 ft 29 kts 105°
2026-04-28 01:40 -31.92896 115.96921 56 ft 56 kts 104°
2026-04-28 01:40 -31.92961 115.97139 57 ft 28 kts 141°
2026-04-28 01:41 -31.93343 115.97060 58 ft 83 kts 195°
2026-04-28 01:41 -31.93882 115.96898 59 ft 74 kts 194°
2026-04-28 01:41 -31.94343 115.96767 60 ft 63 kts 193°
2026-04-28 01:41 -31.94752 115.96650 59 ft 64 kts 193°
2026-04-28 01:42 -31.95322 115.96481 58 ft 87 kts 193°
2026-04-28 01:42 -31.95801 115.96343 61 ft 52 kts 194°
2026-04-28 01:42 -31.95922 115.96253 56 ft 11 kts 258°
2026-04-28 01:42 -31.95898 115.96151 61 ft 9 kts 276°
2026-04-28 01:43 -31.95882 115.96073 57 ft 11 kts 289°
2026-04-28 01:43 -31.95820 115.96004 58 ft 14 kts 341°
2026-04-28 01:43 -31.95722 115.96019 57 ft 25 kts 14°
2026-04-28 01:43 -31.95307 115.96138 59 ft 105 kts 12°
2026-04-28 01:44 -31.94307 115.96422 141 ft 181 kts 16°
2026-04-28 01:44 -31.93081 115.96676 1335 ft 174 kts 15°
2026-04-28 01:44 -31.91809 115.97055 2495 ft 205 kts 18°
2026-04-28 01:44 -31.90427 115.97508 3704 ft 211 kts 16°
2026-04-28 01:45 -31.88973 115.97942 4869 ft 218 kts 12°
2026-04-28 01:45 -31.87452 115.97861 5883 ft 225 kts 338°
2026-04-28 01:45 -31.86263 115.96664 6901 ft 236 kts 301°
2026-04-28 01:45 -31.85768 115.94737 7566 ft 257 kts 279°
2026-04-28 01:46 -31.85565 115.92623 8439 ft 268 kts 277°
2026-04-28 01:46 -31.85358 115.90415 9554 ft 273 kts 278°
2026-04-28 01:46 -31.85136 115.88226 10580 ft 278 kts 279°
2026-04-28 01:46 -31.85118 115.88056 10649 ft 279 kts 279°
2026-04-28 01:47 -31.84847 115.85717 11136 ft 298 kts 280°
2026-04-28 01:47 -31.84537 115.83213 11424 ft 319 kts 280°
2026-04-28 01:47 -31.84205 115.80580 11710 ft 338 kts 280°
2026-04-28 01:47 -31.83851 115.77778 12068 ft 353 kts 280°
2026-04-28 01:48 -31.83488 115.74882 12670 ft 360 kts 279°
2026-04-28 01:48 -31.83419 115.71916 13326 ft 368 kts 265°
2026-04-28 01:48 -31.84017 115.68963 13992 ft 374 kts 255°
2026-04-28 01:48 -31.84815 115.66027 14589 ft 378 kts 254°
2026-04-28 01:49 -31.85636 115.63068 15201 ft 382 kts 254°
2026-04-28 01:49 -31.86447 115.60117 15810 ft 386 kts 254°
2026-04-28 01:49 -31.87271 115.57094 16420 ft 390 kts 253°
2026-04-28 01:49 -31.88100 115.54036 17029 ft 395 kts 254°
2026-04-28 01:50 -31.88941 115.50930 17681 ft 398 kts 254°
2026-04-28 01:50 -31.89766 115.47789 18258 ft 404 kts 255°
2026-04-28 01:50 -31.90212 115.44514 18763 ft 406 kts 269°
2026-04-28 01:50 -31.89923 115.41253 19362 ft 405 kts 285°
2026-04-28 01:51 -31.88880 115.38174 20037 ft 404 kts 300°
2026-04-28 01:51 -31.87819 115.36363 20364 ft 408 kts 310°
2026-04-28 01:51 -31.84890 115.33562 20978 ft 415 kts 331°
2026-04-28 01:51 -31.82164 115.32394 21645 ft 418 kts 346°
2026-04-28 01:52 -31.80235 115.32105 21922 ft 426 kts 356°
2026-04-28 01:52 -31.77261 115.32522 22406 ft 436 kts 12°
2026-04-28 01:52 -31.73374 115.33828 23245 ft 437 kts 11°
2026-04-28 01:52 -31.70376 115.34458 23821 ft 439 kts
2026-04-28 01:53 -31.68328 115.34816 24135 ft 441 kts
2026-04-28 01:53 -31.65329 115.35684 24647 ft 446 kts 16°
2026-04-28 01:53 -31.62495 115.37109 25179 ft 450 kts 24°
2026-04-28 01:53 -31.59686 115.38795 25685 ft 453 kts 25°
2026-04-28 01:54 -31.56878 115.40516 26199 ft 455 kts 25°
2026-04-28 01:54 -31.54060 115.42240 26672 ft 458 kts 24°
2026-04-28 01:54 -31.51223 115.43969 27168 ft 460 kts 24°
2026-04-28 01:54 -31.48375 115.45700 27669 ft 462 kts 24°
2026-04-28 01:55 -31.45504 115.47441 28157 ft 464 kts 24°
2026-04-28 01:55 -31.42665 115.49160 28654 ft 466 kts 24°
2026-04-28 01:55 -31.39781 115.50904 29134 ft 468 kts 24°
2026-04-28 01:55 -31.36882 115.52657 29599 ft 470 kts 24°
2026-04-28 01:56 -31.33947 115.54429 30051 ft 472 kts 24°
2026-04-28 01:56 -31.31015 115.56198 30439 ft 475 kts 24°
2026-04-28 01:56 -31.28073 115.57972 30788 ft 477 kts 24°
2026-04-28 01:56 -31.25115 115.59756 31041 ft 481 kts 24°
2026-04-28 01:57 -31.22156 115.61538 31299 ft 484 kts 24°
2026-04-28 01:57 -31.19152 115.63344 31661 ft 485 kts 24°
2026-04-28 01:57 -31.16156 115.65146 32250 ft 479 kts 24°
2026-04-28 01:57 -31.13241 115.66902 33378 ft 461 kts 23°
2026-04-28 01:58 -31.10476 115.68567 34488 ft 443 kts 22°
2026-04-28 01:58 -31.07778 115.70190 35383 ft 428 kts 22°
2026-04-28 01:58 -31.05172 115.71755 36166 ft 414 kts 21°
2026-04-28 01:58 -31.02648 115.73269 36838 ft 402 kts 20°
2026-04-28 01:59 -31.00171 115.74750 37232 ft 398 kts 20°
2026-04-28 01:59 -30.97708 115.76219 37438 ft 397 kts 20°
2026-04-28 01:59 -30.92795 115.79147 37632 ft 400 kts 20°
2026-04-28 02:00 -30.90315 115.80627 37794 ft 400 kts 20°
2026-04-28 02:00 -30.87832 115.82109 37941 ft 400 kts 19°
2026-04-28 02:00 -30.85356 115.83584 38098 ft 400 kts 19°
2026-04-28 02:00 -30.82833 115.84908 38219 ft 395 kts 13°
2026-04-28 02:01 -30.80225 115.85870 38346 ft 389 kts
2026-04-28 02:01 -30.77622 115.86422 38462 ft 383 kts 360°
2026-04-28 02:01 -30.74964 115.86771 38591 ft 382 kts 358°
2026-04-28 02:01 -30.72319 115.87052 38717 ft 381 kts 358°
2026-04-28 02:02 -30.69675 115.87305 38821 ft 381 kts 357°
2026-04-28 02:02 -30.67032 115.87551 38916 ft 381 kts 357°
2026-04-28 02:02 -30.61775 115.88058 39058 ft 382 kts 358°
2026-04-28 02:03 -30.56434 115.88594 39099 ft 387 kts 358°
2026-04-28 02:03 -30.51021 115.89147 39099 ft 393 kts 358°
2026-04-28 02:04 -30.45574 115.89708 39101 ft 397 kts 358°
2026-04-28 02:04 -30.40073 115.90278 39095 ft 396 kts 358°
2026-04-28 02:05 -30.34570 115.90845 39097 ft 396 kts 358°
2026-04-28 02:05 -30.29102 115.91406 39094 ft 396 kts 358°
2026-04-28 02:06 -30.23602 115.91967 39094 ft 396 kts 358°
2026-04-28 02:06 -30.18117 115.92527 39064 ft 396 kts 358°
2026-04-28 02:07 -30.12656 115.93085 39086 ft 395 kts 358°
2026-04-28 02:07 -30.07178 115.93644 39085 ft 394 kts 358°
2026-04-28 02:08 -30.01696 115.94201 39086 ft 394 kts 358°
2026-04-28 02:08 -29.96254 115.94754 39086 ft 394 kts 358°
2026-04-28 02:09 -29.90774 115.95309 39067 ft 394 kts 357°
2026-04-28 02:09 -29.85362 115.95859 39080 ft 391 kts 357°
2026-04-28 02:10 -29.79920 115.96412 39086 ft 391 kts 357°
2026-04-28 02:10 -29.74523 115.96958 39085 ft 391 kts 357°
2026-04-28 02:11 -29.69098 115.97506 39079 ft 391 kts 357°
2026-04-28 02:11 -29.63697 115.98051 39067 ft 391 kts 357°
2026-04-28 02:12 -29.58265 115.98600 39074 ft 391 kts 357°
2026-04-28 02:12 -29.52840 115.99147 39070 ft 391 kts 357°
2026-04-28 02:13 -29.47443 115.99690 39079 ft 390 kts 357°
2026-04-28 02:13 -29.42017 116.00235 39075 ft 391 kts 357°
2026-04-28 02:14 -29.36623 116.00778 39057 ft 390 kts 356°
2026-04-28 02:14 -29.31196 116.01323 39071 ft 390 kts 356°
2026-04-28 02:15 -29.23099 116.02133 39069 ft 390 kts 356°
2026-04-28 02:16 -29.17766 116.02147 39069 ft 383 kts 350°
2026-04-28 02:16 -29.12438 116.01837 39047 ft 382 kts 349°
2026-04-28 02:17 -29.07117 116.01472 39059 ft 382 kts 349°
2026-04-28 02:17 -29.01839 116.01111 39061 ft 382 kts 349°
2026-04-28 02:18 -28.96547 116.00760 39059 ft 382 kts 349°
2026-04-28 02:18 -28.91233 116.00412 39059 ft 382 kts 349°
2026-04-28 02:19 -28.85913 116.00065 39025 ft 382 kts 349°
2026-04-28 02:19 -28.80625 115.99720 39054 ft 382 kts 349°
2026-04-28 02:20 -28.75337 115.99375 39047 ft 382 kts 349°
2026-04-28 02:20 -28.70002 115.99028 39051 ft 382 kts 349°
2026-04-28 02:21 -28.64707 115.98683 39048 ft 382 kts 349°
2026-04-28 02:21 -28.59389 115.98338 39035 ft 382 kts 349°
2026-04-28 02:22 -28.54092 115.97994 39042 ft 382 kts 349°
2026-04-28 02:22 -28.48779 115.97649 39042 ft 382 kts 349°
2026-04-28 02:23 -28.43450 115.97303 39037 ft 382 kts 349°
2026-04-28 02:23 -28.38152 115.96961 39036 ft 382 kts 349°
2026-04-28 02:24 -28.32840 115.96617 39016 ft 382 kts 348°
2026-04-28 02:24 -28.27540 115.96274 39034 ft 382 kts 348°
2026-04-28 02:25 -28.22221 115.95931 39035 ft 383 kts 348°
2026-04-28 02:25 -28.16917 115.95589 39034 ft 383 kts 348°
2026-04-28 02:26 -28.11595 115.95246 39032 ft 382 kts 348°
2026-04-28 02:26 -28.06276 115.94903 39035 ft 383 kts 348°
2026-04-28 02:27 -28.00976 115.94562 39025 ft 383 kts 348°
2026-04-28 02:27 -27.95643 115.94219 39026 ft 383 kts 348°
2026-04-28 02:28 -27.90331 115.93879 39020 ft 383 kts 348°
2026-04-28 02:28 -27.85027 115.93539 39021 ft 383 kts 348°
2026-04-28 02:29 -27.79685 115.93197 39011 ft 383 kts 348°
2026-04-28 02:29 -27.74380 115.92857 39020 ft 384 kts 348°
2026-04-28 02:30 -27.69032 115.92516 39017 ft 384 kts 348°
2026-04-28 02:30 -27.63691 115.92181 39018 ft 384 kts 348°
2026-04-28 02:31 -27.58381 115.91840 39017 ft 384 kts 348°
2026-04-28 02:31 -27.53057 115.91498 39002 ft 384 kts 348°
2026-04-28 02:32 -27.47676 115.91152 39008 ft 386 kts 348°
2026-04-28 02:32 -27.42316 115.90811 39010 ft 387 kts 348°
2026-04-28 02:33 -27.36930 115.90470 39010 ft 386 kts 348°
2026-04-28 02:33 -27.31583 115.90131 39010 ft 387 kts 348°
2026-04-28 02:34 -27.26203 115.89790 39000 ft 387 kts 348°
2026-04-28 02:34 -27.20844 115.89450 39010 ft 387 kts 348°
2026-04-28 02:35 -27.15444 115.89108 39005 ft 388 kts 348°
2026-04-28 02:35 -27.10037 115.88766 39010 ft 388 kts 348°
2026-04-28 02:36 -27.04680 115.88428 39013 ft 388 kts 348°
2026-04-28 02:36 -26.99273 115.88087 39005 ft 388 kts 348°
2026-04-28 02:37 -26.93905 115.87748 39010 ft 388 kts 348°
2026-04-28 02:37 -26.88493 115.87407 39008 ft 388 kts 348°
2026-04-28 02:38 -26.83113 115.87069 39007 ft 388 kts 348°
2026-04-28 02:38 -26.77743 115.86732 39008 ft 388 kts 348°
2026-04-28 02:39 -26.72330 115.86392 38996 ft 388 kts 348°
2026-04-28 02:39 -26.66956 115.86054 39007 ft 388 kts 348°
2026-04-28 02:40 -26.61540 115.85714 39007 ft 389 kts 348°
2026-04-28 02:40 -26.57049 115.85433 39007 ft 389 kts 348°
2026-04-28 02:41 -26.51635 115.85095 39007 ft 389 kts 348°
2026-04-28 02:41 -26.46264 115.84759 38991 ft 388 kts 348°
2026-04-28 02:42 -26.40854 115.84421 39005 ft 388 kts 348°
2026-04-28 02:42 -26.35486 115.84086 39004 ft 389 kts 348°
2026-04-28 02:43 -26.30069 115.83748 39002 ft 389 kts 348°
2026-04-28 02:43 -26.24689 115.83413 39001 ft 389 kts 348°
2026-04-28 02:44 -26.19275 115.83076 38973 ft 388 kts 348°
2026-04-28 02:44 -26.13899 115.82741 39001 ft 389 kts 348°
2026-04-28 02:45 -26.08476 115.82405 39001 ft 389 kts 348°
2026-04-28 02:45 -26.03083 115.82070 39002 ft 389 kts 348°
2026-04-28 02:46 -25.97666 115.81735 39002 ft 389 kts 348°
2026-04-28 02:46 -25.92289 115.81402 38975 ft 389 kts 348°
2026-04-28 02:47 -25.86872 115.81066 39001 ft 389 kts 348°
2026-04-28 02:47 -25.81482 115.80732 38995 ft 390 kts 348°
2026-04-28 02:48 -25.76038 115.80396 38993 ft 389 kts 348°
2026-04-28 02:48 -25.70650 115.80064 38996 ft 389 kts 348°
2026-04-28 02:49 -25.65237 115.79730 39001 ft 389 kts 348°
2026-04-28 02:49 -25.59818 115.79396 38991 ft 390 kts 348°
2026-04-28 02:50 -25.54390 115.79062 38995 ft 390 kts 348°
2026-04-28 02:50 -25.48989 115.78730 38994 ft 390 kts 348°
2026-04-28 02:51 -25.43558 115.78396 38995 ft 390 kts 348°
2026-04-28 02:51 -25.38161 115.78065 38990 ft 390 kts 348°
2026-04-28 02:52 -25.32753 115.77733 38989 ft 390 kts 348°
2026-04-28 02:52 -25.27316 115.77400 38989 ft 390 kts 348°
2026-04-28 02:53 -25.21919 115.77070 38992 ft 390 kts 348°
2026-04-28 02:53 -25.16492 115.76738 38990 ft 390 kts 348°
2026-04-28 02:54 -25.11069 115.76406 38992 ft 390 kts 348°
2026-04-28 02:54 -25.05671 115.76076 38987 ft 390 kts 348°
2026-04-28 02:55 -25.00236 115.75744 38990 ft 390 kts 348°
2026-04-28 02:55 -24.94838 115.75416 38988 ft 390 kts 348°
2026-04-28 02:56 -24.89390 115.75084 38987 ft 390 kts 348°
2026-04-28 02:56 -24.83982 115.74756 38987 ft 391 kts 348°
2026-04-28 02:57 -24.78576 115.74426 38985 ft 391 kts 348°
2026-04-28 02:57 -24.73136 115.74095 38989 ft 391 kts 348°
2026-04-28 02:58 -24.67688 115.73765 38993 ft 391 kts 349°
2026-04-28 02:58 -24.62273 115.73437 38990 ft 391 kts 348°
2026-04-28 02:59 -24.56838 115.73108 38990 ft 391 kts 348°
2026-04-28 02:59 -24.51393 115.72778 38982 ft 391 kts 349°
2026-04-28 03:00 -24.45941 115.72448 38994 ft 392 kts 349°
2026-04-28 03:00 -24.40529 115.72122 38997 ft 391 kts 349°
2026-04-28 03:01 -24.35072 115.71793 38996 ft 391 kts 349°
2026-04-28 03:01 -24.29660 115.71466 38994 ft 391 kts 349°
2026-04-28 03:02 -24.24210 115.71138 38965 ft 391 kts 349°
2026-04-28 03:02 -24.18774 115.70810 38991 ft 391 kts 349°
2026-04-28 03:03 -24.13354 115.70484 38996 ft 391 kts 349°
2026-04-28 03:03 -24.07900 115.70156 38994 ft 391 kts 349°
2026-04-28 03:04 -24.02480 115.69831 38995 ft 391 kts 349°
2026-04-28 03:04 -23.97019 115.69503 38993 ft 391 kts 349°
2026-04-28 03:05 -23.91607 115.69179 38994 ft 390 kts 349°
2026-04-28 03:05 -23.86203 115.68856 38997 ft 390 kts 349°
2026-04-28 03:06 -23.80758 115.68530 39001 ft 390 kts 349°
2026-04-28 03:06 -23.75359 115.68206 38999 ft 390 kts 349°
2026-04-28 03:07 -23.69972 115.67884 38998 ft 390 kts 349°
2026-04-28 03:07 -23.64546 115.67561 38992 ft 388 kts 349°
2026-04-28 03:08 -23.59152 115.67240 38999 ft 387 kts 349°
2026-04-28 03:08 -23.53796 115.66920 38997 ft 387 kts 349°
2026-04-28 03:09 -23.48402 115.66598 38993 ft 387 kts 349°
2026-04-28 03:09 -23.43035 115.66279 38995 ft 387 kts 349°
2026-04-28 03:10 -23.37643 115.65958 38986 ft 387 kts 349°
2026-04-28 03:10 -23.32295 115.65643 38998 ft 386 kts 349°
2026-04-28 03:11 -23.26911 115.65325 38993 ft 386 kts 349°
2026-04-28 03:11 -23.21568 115.65005 38989 ft 386 kts 349°
2026-04-28 03:12 -23.16183 115.64685 38989 ft 386 kts 349°
2026-04-28 03:12 -23.10842 115.64368 38975 ft 386 kts 349°
2026-04-28 03:13 -23.05465 115.64049 38986 ft 386 kts 348°
2026-04-28 03:13 -23.00102 115.63727 38985 ft 388 kts 349°
2026-04-28 03:14 -22.94704 115.63412 38987 ft 387 kts 349°
2026-04-28 03:14 -22.89346 115.63098 38988 ft 387 kts 349°
2026-04-28 03:15 -22.83959 115.62781 38984 ft 387 kts 349°
2026-04-28 03:15 -22.78575 115.62463 38979 ft 387 kts 348°
2026-04-28 03:16 -22.73223 115.62148 38987 ft 387 kts 348°
2026-04-28 03:16 -22.67842 115.61832 38985 ft 387 kts 348°
2026-04-28 03:17 -22.62483 115.61516 38985 ft 387 kts 348°
2026-04-28 03:17 -22.54440 115.61044 38982 ft 387 kts 348°
2026-04-28 03:18 -22.49045 115.60727 38982 ft 387 kts 348°
2026-04-28 03:18 -22.43685 115.60413 38982 ft 387 kts 348°
2026-04-28 03:19 -22.38333 115.60100 38982 ft 387 kts 348°
2026-04-28 03:19 -22.32945 115.59783 38983 ft 387 kts 348°
2026-04-28 03:20 -22.27560 115.59468 38982 ft 386 kts 348°
2026-04-28 03:20 -22.22215 115.59156 38972 ft 386 kts 348°
2026-04-28 03:21 -22.16863 115.58844 38982 ft 386 kts 348°
2026-04-28 03:21 -22.11474 115.58530 38982 ft 386 kts 348°
2026-04-28 03:22 -22.06108 115.58217 38983 ft 386 kts 348°
2026-04-28 03:22 -22.00771 115.57906 38979 ft 386 kts 348°
2026-04-28 03:23 -21.95399 115.57593 38980 ft 386 kts 348°
2026-04-28 03:23 -21.90058 115.57290 38978 ft 385 kts 348°
2026-04-28 03:24 -21.84686 115.56975 38980 ft 385 kts 348°
2026-04-28 03:24 -21.79355 115.56661 38980 ft 385 kts 348°
2026-04-28 03:25 -21.74017 115.56350 38979 ft 385 kts 348°
2026-04-28 03:25 -21.68654 115.56038 38980 ft 385 kts 348°
2026-04-28 03:26 -21.63309 115.55728 38971 ft 385 kts 349°
2026-04-28 03:26 -21.57933 115.55417 38984 ft 385 kts 349°
2026-04-28 03:27 -21.52603 115.55109 38982 ft 385 kts 349°
2026-04-28 03:27 -21.47247 115.54799 38982 ft 385 kts 349°
2026-04-28 03:28 -21.41919 115.54491 38980 ft 385 kts 349°
2026-04-28 03:28 -21.36554 115.54181 38979 ft 385 kts 349°
2026-04-28 03:29 -21.31233 115.53874 38976 ft 384 kts 349°
2026-04-28 03:29 -21.26775 115.53617 38977 ft 384 kts 349°
2026-04-28 03:30 -21.20563 115.53259 38982 ft 384 kts 349°
2026-04-28 03:30 -21.15219 115.52952 38979 ft 384 kts 349°
2026-04-28 03:31 -21.09904 115.52646 38981 ft 384 kts 349°
2026-04-28 03:31 -21.04556 115.52338 38967 ft 384 kts 349°
2026-04-28 03:32 -21.00127 115.52084 38976 ft 383 kts 349°
2026-04-28 03:32 -20.94791 115.51778 38977 ft 383 kts 349°
2026-04-28 03:33 -20.89501 115.51474 38977 ft 382 kts 349°
2026-04-28 03:33 -20.84161 115.51167 38977 ft 382 kts 349°
2026-04-28 03:34 -20.78870 115.50864 38980 ft 382 kts 349°
2026-04-28 03:34 -20.73552 115.50560 38981 ft 382 kts 349°
2026-04-28 03:35 -20.68238 115.50257 38976 ft 381 kts 349°
2026-04-28 03:35 -20.62971 115.49955 38980 ft 380 kts 349°